Helicity
12 50 -7 -37 -52 -23 21 52 -24 -4 3 -14 -22 18 58 75 80 79 62 46 62 64
90 71 52 39 31 5 82 40 -25 -52 42 36 23 30 58 81 68 90 74 66 58 68
123 136 103 85 68 61 47 49 40 46 83 77 70 40 37 57 69 76 61 65 62 68
196 180 151 132 110 90 100 95 88 52 58 76 66 64 76 60 47 56 66 83 79 72
117 112 113 124 121 100 94 106 96 93 93 64 73 75 60 71 90 77 54 48 71 52
114 118 120 128 130 135 116 106 110 96 93 90 86 90 112 69 67 69 68 57 66 49
80 93 92 103 123 137 147 133 135 114 96 104 113 97 94 82 115 78 72 70 70 65
51 69 78 84 94 106 118 127 138 141 134 109 104 113 101 93 98 99 101 82 77 62
38 49 58 65 82 94 104 116 124 137 139 130 113 116 124 94 84 85 79 86 78 60
34 39 50 64 82 92 98 105 116 128 129 126 119 122 125 125 103 85 72 69 70 65
37 41 51 59 70 87 92 91 93 97 114 117 96 109 133 142 108 99 90 78 76 71
51 57 70 81 94 94 75 82 82 88 95 97 84 81 105 125 111 95 73 77 80 78
54 59 62 64 83 100 95 87 92 95 103 95 89 83 82 116 132 113 90 76 70 66
59 60 63 64 84 86 84 77 75 66 84 97 109 110 96 115 135 120 100 79 88 99
Wind_Speed
30 28 40 47 49 39 14 20 35 14 6 9 10 7 35 24 29 30 28 27 32 37
26 34 29 14 15 20 38 32 65 61 15 20 18 22 26 31 28 32 35 31 32 34
45 51 54 57 57 58 54 35 20 20 31 35 35 34 36 31 25 22 26 34 43 43
52 57 58 58 59 61 59 57 53 53 44 33 24 27 29 28 28 26 30 41 39 36
58 59 61 62 64 63 60 59 58 56 52 46 41 37 37 32 41 40 36 30 32 34
60 61 62 63 63 64 63 61 59 55 53 52 49 48 48 50 47 47 44 44 44 49
60 61 63 64 64 64 63 61 60 58 57 54 51 50 54 56 57 52 54 50 49 49
61 62 64 66 67 67 65 63 61 59 59 58 57 53 51 53 55 59 60 56 54 54
65 67 66 66 67 66 66 66 64 63 61 61 58 60 63 59 56 58 58 60 60 59
66 66 65 66 66 66 66 66 66 65 64 64 62 62 62 64 63 59 59 61 60 61
67 68 66 63 62 63 62 64 67 68 67 65 62 62 64 64 62 61 61 59 58 60
65 64 64 61 60 63 63 65 65 64 66 65 66 62 64 64 62 60 60 59 58 57
62 61 60 61 61 64 63 65 65 65 63 62 64 60 62 59 57 57 55 55 54 51
61 59 57 58 60 61 64 64 66 66 65 61 56 57 57 58 51 50 52 48 48 45
Wind_Direction
209 215 221 226 225 217 231 310 217 211 277 232 225 287 308 308 310 311 313 315 314 311
344 333 340 320 296 254 309 318 262 236 271 304 307 315 317 313 305 305 306 309 310 311
325 320 318 313 313 313 318 323 293 283 304 303 306 308 308 310 308 304 304 308 302 303
326 322 321 320 316 313 315 316 317 311 306 303 296 303 305 303 305 302 304 301 304 305
326 325 322 319 317 318 318 319 316 314 311 308 300 294 298 297 296 298 300 303 305 305
329 328 325 323 321 320 319 318 318 318 315 308 303 300 299 297 296 295 297 299 300 301
335 332 328 325 323 321 320 319 317 314 313 310 307 303 297 296 291 295 293 296 298 300
335 332 329 325 322 319 319 318 317 315 311 309 306 305 303 299 295 291 291 293 296 298
332 330 328 326 323 322 320 316 315 313 312 308 307 303 298 299 297 295 294 293 294 296
336 335 333 330 325 322 320 318 314 311 310 307 305 304 301 297 294 295 296 294 295 297
338 336 336 336 333 328 325 321 315 310 306 304 303 303 301 300 297 295 297 298 297 298
340 343 342 341 338 333 329 323 318 314 309 302 297 300 299 300 299 299 297 297 297 299
344 346 345 343 341 337 333 328 323 318 314 309 299 297 297 300 302 299 301 302 301 300
344 346 348 347 345 342 336 332 326 321 317 313 310 298 298 299 302 301 300 302 305 305